FENGYUN 1C DEB, 30133

Orbit data source: Space-Track

FENGYUN 1C DEB, 30133 is space debris in SSO originally from a launch on Mon, 10 May 1999 UTC launched from the Taiyaun Space Center, China (TSC). Fengyun 1C debris stems from the Chinese weather satellite Fengyun-1C, which was intentionally destroyed by a Chinese anti-satellite missile in 2007. This event dramatically increased the amount of space debris, with thousands of trackable fragments posing hazards to satellites and human spaceflight. The Fengyun 1C debris cloud has become a focal point in discussions about space sustainability and the need for international regulations to prevent the creation of new debris.

Loading next visibility...
Identifier
30133, 1999-025SN
Orbit
SSO
Country
Flag of CNCN / PRC
Related business
Manufacturer
Unknown
Mission
Spacecraft
Bus & Motor
Unknown
Mass
Unknown
Launch date (UTC)
1999-05-10 (27 years ago)
Launch vehicle
Unknown
Launch site
Taiyaun Space Center, China (TSC)
Object type
Payload
Rocket body
Debris
Shape & HBR
Unknown shape, 0.1 m
Radar Cross Section
Small (<0.1 m²)

Expand to show TLE details & history
Last TLE update: 14 hours ago

TLE from 14 hours ago
0 FENGYUN 1C DEB
1 30133U 99025SN  26145.93762362  .00001744  00000-0  10236-2 0  9991
2 30133  98.3419 304.8589 0085593 151.8883 339.9677 14.07469505986870
Epoch: 2026-05-25T22:30Z
TLE epoch observation values (Epoch: 2026-05-25T22:30:10.680Z)
Latitude
47.90157°
Longitude
-86.9141°
Altitude
817.27 km
Speed
7.479 km/s
True Right ascension
08h 56m 35s
True Declination
47° 43' 55"
Sunlit
Object was in daylight at epoch
Visualization orbit readout
Latitude
Unknown
Longitude
Unknown
Altitude
Unknown
Speed
Unknown
Apparent Right ascension
Unknown
Apparent Declination
Unknown
Sunlit
N/A
Visualization observer readout
Local Sidereal Time
21:30:29
Azimuth
Unknown
Elevation
Unknown
Doppler factor
Unknown
Orbital elements
Apogee altitude
927.2 km
Perigee altitude
803.204 km
Semi-major axis
7,243.339 km
Eccentricity
0.00856
Inclination
98.3419°
RAAN
304.8589°
Arg. of periapsis
151.8883°
True anomaly
339.62831°
Mean anomaly
339.9677°
Eccentric anomaly
339.79835°
Mean motion
3.52075 °/min
Orbital period
102.25 mins
BSTAR
0.0010236
Loading maneuver chart data...
Computing Atmospheric mass density...
Loading historical data...
Loading historical data...
Loading historical data...
Loading historical data...
Loading historical data...
Loading historical data...
Loading historical data...

Documentation

Showing up to 5 results
|